WD6FGE Weather Reports


Display with metric or nautical units.
time (UTC)temp
F
wind
direction
speed
MPH
gust
MPH
rain 1hr
in
rain 24hr
in
rain mn
in
humidity
%
barometer
mb
20170820073026 59 270 0.0 1.0 0.00 0.00 0.00 61 1011.6
20170820072019 59 270 0.0 0.0 0.00 0.00 0.00 61 1011.5
20170820070956 60 270 0.0 0.0 0.00 0.00 0.00 59 1011.3
20170820070011 60 270 0.0 1.0 0.00 0.00 0.00 59 1011.3
20170820065007 61 270 0.0 2.0 0.00 0.00 0.00 58 1011.1
20170820064028 61 270 0.0 2.0 0.00 0.00 0.00 57 1011.1
20170820063009 63 270 0.0 1.0 0.00 0.00 0.00 54 1011.0
20170820062003 64 270 0.0 1.0 0.00 0.00 0.00 53 1010.8
20170820060954 64 270 1.0 3.0 0.00 0.00 0.00 55 1010.7
20170820055946 64 264 0.0 3.0 0.00 0.00 0.00 55 1010.6
20170820054942 65 277 0.0 3.0 0.00 0.00 0.00 53 1010.4
20170820053945 66 277 1.0 3.0 0.00 0.00 0.00 52 1010.3
20170820053003 68 277 0.0 2.0 0.00 0.00 0.00 50 1010.2
20170820051951 67 278 1.0 4.0 0.00 0.00 0.00 55 1010.2
20170820050938 66 296 0.0 1.0 0.00 0.00 0.00 54 1010.0
20170820045931 66 296 0.0 2.0 0.00 0.00 0.00 52 1010.0
20170820044940 68 296 0.0 1.0 0.00 0.00 0.00 51 1009.9
20170820043906 69 296 0.0 0.0 0.00 0.00 0.00 49 1009.9
20170820042925 70 296 0.0 2.0 0.00 0.00 0.00 51 1009.7
20170820041902 70 296 0.0 2.0 0.00 0.00 0.00 52 1009.6
20170820040837 71 296 0.0 1.0 0.00 0.00 0.00 49 1009.5
20170820035824 71 296 1.0 2.0 0.00 0.00 0.00 47 1009.4
20170820034837 71 296 0.0 2.0 0.00 0.00 0.00 47 1009.2
20170820033852 73 296 1.0 2.0 0.00 0.00 0.00 45 1009.1
20170820032842 75 296 0.0 2.0 0.00 0.00 0.00 43 1009.0
20170820031848 75 297 0.0 2.0 0.00 0.00 0.00 44 1008.9
20170820030853 76 236 0.0 2.0 0.00 0.00 0.00 42 1008.6
20170820025902 77 244 0.0 2.0 0.00 0.00 0.00 41 1008.4
20170820024836 79 256 0.0 2.0 0.00 0.00 0.00 40 1008.3
20170820023848 81 256 1.0 2.0 0.00 0.00 0.00 38 1008.2
20170820022817 82 227 0.0 1.0 0.00 0.00 0.00 35 1008.1
20170820021817 84 217 0.0 4.0 0.00 0.00 0.00 34 1007.9
20170820020814 86 209 1.0 4.0 0.00 0.00 0.00 32 1007.8
20170820015833 87 216 0.0 4.0 0.00 0.00 0.00 30 1007.8
20170820014802 88 232 1.0 4.0 0.00 0.00 0.00 28 1007.7
20170820013750 89 215 1.0 6.0 0.00 0.00 0.00 27 1007.6
20170820012740 90 223 2.0 6.0 0.00 0.00 0.00 25 1007.6
20170820011752 90 251 1.0 5.0 0.00 0.00 0.00 24 1007.6
20170820010759 91 264 2.0 8.0 0.00 0.00 0.00 24 1007.5
20170820005739 91 227 2.0 8.0 0.00 0.00 0.00 24 1007.5
20170820004707 91 184 1.0 4.0 0.00 0.00 0.00 23 1007.6
20170820003658 92 189 1.0 6.0 0.00 0.00 0.00 23 1007.6
20170820002640 91 232 2.0 8.0 0.00 0.00 0.00 23 1007.6
20170820001634 92 267 1.0 8.0 0.00 0.00 0.00 22 1007.7
20170820000619 93 303 2.0 10.0 0.00 0.00 0.00 22 1007.6
20170819235551 93 254 2.0 10.0 0.00 0.00 0.00 22 1007.6
20170819234538 93 266 1.0 6.0 0.00 0.00 0.00 22 1007.7
20170819233510 93 302 1.0 6.0 0.00 0.00 0.00 23 1007.8
20170819232439 92 294 1.0 5.0 0.00 0.00 0.00 22 1007.9
20170819231446 94 247 2.0 6.0 0.00 0.00 0.00 22 1008.1
20170819230426 93 194 2.0 6.0 0.00 0.00 0.00 22 1008.0
20170819225434 94 282 2.0 6.0 0.00 0.00 0.00 22 1008.2
20170819224405 93 198 2.0 5.0 0.00 0.00 0.00 22 1008.3
20170819223347 93 270 1.0 4.0 0.00 0.00 0.00 22 1008.4
20170819222403 93 225 2.0 4.0 0.00 0.00 0.00 22 1008.6
20170819221330 92 197 2.0 6.0 0.00 0.00 0.00 22 1008.8
20170819220301 91 177 2.0 6.0 0.00 0.00 0.00 22 1008.9
20170819215259 91 236 2.0 6.0 0.00 0.00 0.00 24 1009.1
20170819214258 92 209 1.0 6.0 0.00 0.00 0.00 23 1009.3
20170819213300 90 159 1.0 5.0 0.00 0.00 0.00 23 1009.4
20170819212225 90 258 1.0 4.0 0.00 0.00 0.00 23 1009.7
20170819211235 91 238 1.0 6.0 0.00 0.00 0.00 23 1009.8
20170819210213 90 342 1.0 6.0 0.00 0.00 0.00 22 1010.0
20170819205205 88 312 1.0 5.0 0.00 0.00 0.00 23 1010.2
20170819204223 88 191 1.0 3.0 0.00 0.00 0.00 23 1010.3
20170819203207 87 67 1.0 9.0 0.00 0.00 0.00 24 1010.5
20170819202150 87 72 2.0 9.0 0.00 0.00 0.00 24 1010.6
20170819201157 86 300 2.0 6.0 0.00 0.00 0.00 25 1010.7
20170819200133 85 40 1.0 4.0 0.00 0.00 0.00 27 1010.9
20170819195122 85 21 1.0 6.0 0.00 0.00 0.00 25 1011.0
20170819194115 84 332 1.0 6.0 0.00 0.00 0.00 27 1011.2
20170819193108 84 28 0.0 5.0 0.00 0.00 0.00 27 1011.4
20170819192059 83 28 2.0 5.0 0.00 0.00 0.00 27 1011.6
20170819191023 83 59 1.0 6.0 0.00 0.00 0.00 27 1011.7
20170819190033 83 28 2.0 6.0 0.00 0.00 0.00 28 1011.9
20170819185018 82 229 1.0 5.0 0.00 0.00 0.00 29 1011.9
20170819184022 81 285 1.0 6.0 0.00 0.00 0.00 30 1012.1
20170819183040 80 5 2.0 6.0 0.00 0.00 0.00 31 1012.3
20170819182100 79 20 1.0 7.0 0.00 0.00 0.00 32 1012.4
20170819181048 79 50 1.0 7.0 0.00 0.00 0.00 32 1012.5
20170819180059 78 267 2.0 5.0 0.00 0.00 0.00 33 1012.6
20170819175056 77 300 1.0 5.0 0.00 0.00 0.00 34 1012.7
20170819174043 77 68 0.0 5.0 0.00 0.00 0.00 35 1012.8
20170819173012 76 65 2.0 5.0 0.00 0.00 0.00 36 1012.9
20170819172032 75 333 0.0 3.0 0.00 0.00 0.00 36 1013.0
20170819171029 74 113 0.0 0.0 0.00 0.00 0.00 43 1013.1
20170819170010 72 113 0.0 0.0 0.00 0.00 0.00 43 1013.3
20170819165006 71 113 0.0 2.0 0.00 0.00 0.00 46 1013.3
20170819164021 69 171 0.0 2.0 0.00 0.00 0.00 48 1013.3
20170819163007 68 272 0.0 0.0 0.00 0.00 0.00 50 1013.5
20170819162028 66 272 0.0 0.0 0.00 0.00 0.00 52 1013.6
20170819161037 65 272 0.0 0.0 0.00 0.00 0.00 56 1013.7
20170819160054 64 19 0.0 0.0 0.00 0.00 0.00 60 1013.8
20170819155058 61 19 0.0 0.0 0.00 0.00 0.00 67 1013.9
20170819154114 59 19 0.0 0.0 0.00 0.00 0.00 69 1014.0
20170819153107 58 19 0.0 0.0 0.00 0.00 0.00 70 1014.0
20170819152107 56 19 0.0 1.0 0.00 0.00 0.00 72 1014.1
20170819151052 55 286 0.0 0.0 0.00 0.00 0.00 73 1014.1
20170819150043 54 286 0.0 0.0 0.00 0.00 0.00 74 1014.2
20170819145058 53 286 0.0 0.0 0.00 0.00 0.00 78 1014.1
20170819144111 52 286 0.0 0.0 0.00 0.00 0.00 80 1014.1
20170819143048 51 286 0.0 0.0 0.00 0.00 0.00 80 1014.2
20170819142018 50 286 0.0 0.0 0.00 0.00 0.00 80 1014.1
20170819141033 49 286 0.0 0.0 0.00 0.00 0.00 80 1014.0
20170819140014 49 286 0.0 0.0 0.00 0.00 0.00 82 1014.0
20170819135008 49 286 0.0 1.0 0.00 0.00 0.00 81 1014.0
20170819134006 49 286 0.0 0.0 0.00 0.00 0.00 78 1013.7
20170819133026 49 286 0.0 0.0 0.00 0.00 0.00 77 1013.7
20170819132012 49 286 0.0 0.0 0.00 0.00 0.00 77 1013.7
20170819130951 49 286 0.0 0.0 0.00 0.00 0.00 76 1013.6
20170819125931 50 286 0.0 0.0 0.00 0.00 0.00 76 1013.4
20170819124901 50 286 0.0 0.0 0.00 0.00 0.00 76 1013.3
20170819123831 50 286 0.0 0.0 0.00 0.00 0.00 75 1013.3
20170819122839 50 286 0.0 1.0 0.00 0.00 0.00 78 1013.2
20170819121840 50 286 0.0 0.0 0.00 0.00 0.00 78 1013.1
20170819120843 51 286 0.0 0.0 0.00 0.00 0.00 76 1013.1
20170819115838 51 286 0.0 1.0 0.00 0.00 0.00 71 1013.1
20170819114827 52 286 0.0 2.0 0.00 0.00 0.00 72 1013.2
20170819113805 52 286 0.0 2.0 0.00 0.00 0.00 73 1013.2
20170819112802 52 286 0.0 0.0 0.00 0.00 0.00 72 1013.2
20170819111736 52 286 0.0 0.0 0.00 0.00 0.00 71 1013.3
20170819110720 53 286 0.0 0.0 0.00 0.00 0.00 70 1013.2
20170819105647 53 286 0.0 0.0 0.00 0.00 0.00 69 1013.3
20170819104639 53 286 0.0 0.0 0.00 0.00 0.00 68 1013.3
20170819103612 54 286 0.0 0.0 0.00 0.00 0.00 67 1013.2
20170819102621 54 286 0.0 0.0 0.00 0.00 0.00 66 1013.3
20170819101604 55 286 0.0 0.0 0.00 0.00 0.00 66 1013.3
20170819100530 55 286 0.0 0.0 0.00 0.00 0.00 68 1013.3
20170819095507 55 286 0.0 1.0 0.00 0.00 0.00 69 1013.3
20170819094445 55 286 0.0 0.0 0.00 0.00 0.00 65 1013.3
20170819093424 56 286 0.0 0.0 0.00 0.00 0.00 64 1013.2
20170819092351 56 286 0.0 0.0 0.00 0.00 0.00 61 1013.3
20170819091319 56 286 0.0 0.0 0.00 0.00 0.00 62 1013.2
20170819090320 57 286 0.0 0.0 0.00 0.00 0.00 61 1013.2
20170819085301 58 286 0.0 1.0 0.00 0.00 0.00 61 1013.2
20170819084231 58 286 0.0 1.0 0.00 0.00 0.00 63 1013.3
20170819083203 58 286 0.0 0.0 0.00 0.00 0.00 64 1013.4
20170819082219 59 286 0.0 1.0 0.00 0.00 0.00 62 1013.3
20170819081230 60 286 0.0 0.0 0.00 0.00 0.00 58 1013.2
20170819080207 60 286 0.0 2.0 0.00 0.00 0.00 57 1013.3
20170819075215 61 286 0.0 2.0 0.00 0.00 0.00 56 1013.2
20170819074146 61 286 0.0 0.0 0.00 0.00 0.00 60 1013.3